Location: Ab? ar R?sh Ba?r?
(24.1861°N, 32.8847°E)
Time: 10:52:58
(UTC+00:00)

In-Cosmos 22 Rocket - Pass Details

Date: 24 October 2021
Orbit: 790 x 888 km, 81.2° (Epoch: 03 December)

Event Time Altitude Azimuth Distance (km) Brightness Sun altitude
Rises 16:55:44 0° 352° (N) 3,284 7.3 -23.7°
Reaches altitude 10° 16:58:05 10° 352° (N) 2,354 6.6 -24.2°
Maximum altitude 17:03:23 85° 264° (W) 801 4.0 -25.4°
Drops below altitude 10° 17:08:44 10° 176° (S) 2,374 6.5 -26.7°
Sets 17:11:08 0° 176° (S) 3,314 7.3 -27.2°
